| time (UTC) | temp F | wind direction | speed MPH | gust MPH | rain 1hr in | rain 24hr in | rain mn in | humidity % | barometer mb |
| 20260506062416 | 35 | 38 | 3.0 | 6.0 | 0.00 | 0.00 | 0.00 | 67 | 1016.0 |
| 20260506061912 | 35 | 26 | 4.0 | 6.0 | 0.00 | 0.00 | 0.00 | 67 | 1016.1 |
| 20260506061409 | 35 | 33 | 3.0 | 4.0 | 0.00 | 0.00 | 0.00 | 68 | 1016.1 |
| 20260506060907 | 35 | 85 | 3.0 | 6.0 | 0.00 | 0.00 | 0.00 | 68 | 1016.1 |
| 20260506060404 | 35 | 21 | 2.0 | 4.0 | 0.00 | 0.00 | 0.00 | 68 | 1016.0 |
| 20260506051336 | 36 | 291 | 1.0 | 4.0 | 0.00 | 0.00 | 0.00 | 68 | 1015.7 |
| 20260506050834 | 36 | 285 | 2.0 | 3.0 | 0.00 | 0.00 | 0.00 | 67 | 1015.9 |
| 20260506050331 | 36 | 308 | 0.0 | 2.0 | 0.00 | 0.00 | 0.00 | 68 | 1015.7 |
| 20260506044822 | 35 | 245 | 1.0 | 2.0 | 0.00 | 0.00 | 0.00 | 67 | 1015.6 |
| 20260506044320 | 36 | 255 | 5.0 | 6.0 | 0.00 | 0.00 | 0.00 | 66 | 1015.8 |
| 20260506043816 | 36 | 256 | 2.0 | 3.0 | 0.00 | 0.00 | 0.00 | 66 | 1015.6 |
| 20260506043314 | 36 | 254 | 1.0 | 2.0 | 0.00 | 0.00 | 0.00 | 66 | 1015.7 |
| 20260506042812 | 36 | 277 | 0.0 | 4.0 | 0.00 | 0.00 | 0.00 | 66 | 1015.5 |
| 20260506042311 | 36 | 309 | 3.0 | 4.0 | 0.00 | 0.00 | 0.00 | 65 | 1015.4 |
| 20260506041809 | 36 | 291 | 2.0 | 4.0 | 0.00 | 0.00 | 0.00 | 65 | 1015.5 |
| 20260506041305 | 36 | 313 | 2.0 | 2.0 | 0.00 | 0.00 | 0.00 | 65 | 1015.3 |
| 20260506040803 | 36 | 295 | 2.0 | 3.0 | 0.00 | 0.00 | 0.00 | 65 | 1015.5 |
| 20260506040300 | 36 | 347 | 2.0 | 6.0 | 0.00 | 0.00 | 0.00 | 64 | 1015.4 |
| 20260506035756 | 36 | 325 | 2.0 | 6.0 | 0.00 | 0.00 | 0.00 | 64 | 1015.4 |
| 20260506035253 | 36 | 310 | 1.0 | 3.0 | 0.00 | 0.00 | 0.00 | 65 | 1015.5 |
| 20260506034750 | 36 | 339 | 1.0 | 3.0 | 0.00 | 0.00 | 0.00 | 63 | 1015.3 |
| 20260506034248 | 36 | 9 | 3.0 | 4.0 | 0.00 | 0.00 | 0.00 | 63 | 1015.5 |
| 20260506033744 | 36 | 339 | 2.0 | 2.0 | 0.00 | 0.00 | 0.00 | 63 | 1015.3 |
| 20260506033242 | 36 | 295 | 1.0 | 3.0 | 0.00 | 0.00 | 0.00 | 62 | 1015.3 |
| 20260506032738 | 37 | 331 | 2.0 | 4.0 | 0.00 | 0.00 | 0.00 | 62 | 1015.2 |
| 20260506032235 | 37 | 303 | 1.0 | 4.0 | 0.00 | 0.00 | 0.00 | 61 | 1015.1 |
| 20260506031726 | 37 | 319 | 2.0 | 4.0 | 0.00 | 0.00 | 0.00 | 61 | 1015.2 |
| 20260506031224 | 37 | 296 | 1.0 | 2.0 | 0.00 | 0.00 | 0.00 | 61 | 1015.2 |
| 20260506030722 | 37 | 257 | 0.0 | 3.0 | 0.00 | 0.00 | 0.00 | 61 | 1015.1 |
| 20260506030219 | 37 | 335 | 2.0 | 3.0 | 0.00 | 0.00 | 0.00 | 61 | 1015.2 |
| 20260506025716 | 37 | 303 | 1.0 | 2.0 | 0.00 | 0.00 | 0.00 | 60 | 1015.2 |
| 20260506025212 | 38 | 293 | 1.0 | 2.0 | 0.00 | 0.00 | 0.00 | 60 | 1015.0 |
| 20260506024709 | 38 | 331 | 3.0 | 4.0 | 0.00 | 0.00 | 0.00 | 59 | 1015.3 |
| 20260506024205 | 38 | 299 | 1.0 | 2.0 | 0.00 | 0.00 | 0.00 | 59 | 1014.9 |
| 20260506023702 | 38 | 270 | 0.0 | 3.0 | 0.00 | 0.00 | 0.00 | 59 | 1015.1 |
| 20260506023200 | 38 | 42 | 2.0 | 6.0 | 0.00 | 0.00 | 0.00 | 57 | 1014.9 |
| 20260506022656 | 39 | 267 | 4.0 | 4.0 | 0.00 | 0.00 | 0.00 | 56 | 1014.6 |
| 20260506022154 | 39 | 341 | 4.0 | 6.0 | 0.00 | 0.00 | 0.00 | 57 | 1014.7 |
| 20260506021652 | 39 | 305 | 2.0 | 4.0 | 0.00 | 0.00 | 0.00 | 56 | 1014.5 |
| 20260506021148 | 39 | 315 | 2.0 | 4.0 | 0.00 | 0.00 | 0.00 | 57 | 1014.5 |
| 20260506020640 | 39 | 354 | 3.0 | 6.0 | 0.00 | 0.00 | 0.00 | 56 | 1014.4 |
| 20260506020137 | 39 | 312 | 4.0 | 6.0 | 0.00 | 0.00 | 0.00 | 55 | 1014.5 |
| 20260506015635 | 39 | 333 | 2.0 | 6.0 | 0.00 | 0.00 | 0.00 | 55 | 1014.5 |
| 20260506015131 | 40 | 356 | 5.0 | 8.0 | 0.00 | 0.00 | 0.00 | 54 | 1014.3 |
| 20260506014629 | 40 | 11 | 2.0 | 8.0 | 0.00 | 0.00 | 0.00 | 54 | 1014.2 |
| 20260506014124 | 40 | 11 | 3.0 | 7.0 | 0.00 | 0.00 | 0.00 | 54 | 1014.3 |
| 20260506013623 | 40 | 5 | 3.0 | 10.0 | 0.00 | 0.00 | 0.00 | 54 | 1014.2 |
| 20260506013119 | 40 | 313 | 4.0 | 8.0 | 0.00 | 0.00 | 0.00 | 53 | 1014.1 |
| 20260506012615 | 40 | 344 | 10.0 | 14.0 | 0.00 | 0.00 | 0.00 | 51 | 1014.2 |
| 20260506012111 | 40 | 313 | 8.0 | 14.0 | 0.00 | 0.00 | 0.00 | 52 | 1014.1 |
| 20260506011610 | 41 | 347 | 2.0 | 10.0 | 0.00 | 0.00 | 0.00 | 53 | 1014.2 |
| 20260506011106 | 41 | 313 | 5.0 | 13.0 | 0.00 | 0.00 | 0.00 | 52 | 1014.2 |
| 20260506010600 | 41 | 319 | 6.0 | 11.0 | 0.00 | 0.00 | 0.00 | 52 | 1014.1 |
| 20260506010056 | 41 | 338 | 9.0 | 15.0 | 0.00 | 0.00 | 0.00 | 51 | 1014.0 |
| 20260506005553 | 41 | 33 | 4.0 | 7.0 | 0.00 | 0.00 | 0.00 | 55 | 1014.0 |
| 20260506005049 | 41 | 342 | 6.0 | 9.0 | 0.00 | 0.00 | 0.00 | 53 | 1014.0 |
| 20260506004547 | 41 | 8 | 6.0 | 7.0 | 0.00 | 0.00 | 0.00 | 54 | 1013.8 |
| 20260506004043 | 41 | 310 | 4.0 | 14.0 | 0.00 | 0.00 | 0.00 | 53 | 1013.9 |
| 20260506003540 | 41 | 356 | 4.0 | 10.0 | 0.00 | 0.00 | 0.00 | 55 | 1013.7 |
| 20260506003036 | 41 | 294 | 6.0 | 9.0 | 0.00 | 0.00 | 0.00 | 53 | 1013.9 |
| 20260506002532 | 41 | 357 | 6.0 | 15.0 | 0.00 | 0.00 | 0.00 | 53 | 1013.8 |
| 20260506002028 | 41 | 284 | 4.0 | 6.0 | 0.00 | 0.00 | 0.00 | 54 | 1013.7 |
| 20260506001524 | 41 | 311 | 8.0 | 10.0 | 0.00 | 0.00 | 0.00 | 52 | 1013.9 |
| 20260506001022 | 41 | 260 | 5.0 | 11.0 | 0.00 | 0.00 | 0.00 | 54 | 1013.6 |
| 20260506000519 | 41 | 270 | 8.0 | 10.0 | 0.00 | 0.00 | 0.00 | 54 | 1013.7 |
| 20260506000017 | 41 | 347 | 6.0 | 8.0 | 0.00 | 0.00 | 0.00 | 55 | 1013.7 |
| 20260505235515 | 41 | 67 | 1.0 | 6.0 | 0.00 | 0.00 | 0.00 | 55 | 1013.5 |
| 20260505235011 | 41 | 296 | 6.0 | 8.0 | 0.00 | 0.00 | 0.00 | 54 | 1013.8 |
| 20260505234508 | 41 | 357 | 6.0 | 11.0 | 0.00 | 0.00 | 0.00 | 54 | 1013.7 |
| 20260505234005 | 42 | 279 | 6.0 | 9.0 | 0.00 | 0.00 | 0.00 | 55 | 1013.9 |
| 20260505233502 | 41 | 310 | 6.0 | 8.0 | 0.00 | 0.00 | 0.00 | 55 | 1013.5 |
| 20260505232959 | 41 | 0 | 4.0 | 8.0 | 0.00 | 0.00 | 0.00 | 55 | 1013.6 |
| 20260505232457 | 41 | 305 | 6.0 | 8.0 | 0.00 | 0.00 | 0.00 | 54 | 1013.8 |
| 20260505231954 | 42 | 296 | 7.0 | 9.0 | 0.00 | 0.00 | 0.00 | 53 | 1014.0 |
| 20260505231451 | 42 | 296 | 7.0 | 17.0 | 0.00 | 0.00 | 0.00 | 53 | 1014.0 |
| 20260505230949 | 41 | 305 | 9.0 | 11.0 | 0.00 | 0.00 | 0.00 | 54 | 1013.8 |
| 20260505230441 | 41 | 331 | 6.0 | 13.0 | 0.00 | 0.00 | 0.00 | 53 | 1013.7 |
| 20260505225937 | 42 | 282 | 9.0 | 15.0 | 0.00 | 0.00 | 0.00 | 54 | 1013.9 |
| 20260505225435 | 41 | 307 | 9.0 | 10.0 | 0.00 | 0.00 | 0.00 | 54 | 1013.7 |
| 20260505224930 | 41 | 288 | 9.0 | 13.0 | 0.00 | 0.00 | 0.00 | 55 | 1013.7 |
| 20260505224428 | 41 | 288 | 9.0 | 13.0 | 0.00 | 0.00 | 0.00 | 55 | 1013.6 |
| 20260505223925 | 43 | 271 | 6.0 | 7.0 | 0.00 | 0.00 | 0.00 | 53 | 1013.8 |
| 20260505223422 | 42 | 305 | 5.0 | 11.0 | 0.00 | 0.00 | 0.00 | 54 | 1013.9 |
| 20260505222918 | 43 | 269 | 6.0 | 11.0 | 0.00 | 0.00 | 0.00 | 52 | 1013.8 |
| 20260505222414 | 41 | 2 | 5.0 | 6.0 | 0.00 | 0.00 | 0.00 | 55 | 1013.6 |
| 20260505221910 | 42 | 308 | 8.0 | 11.0 | 0.00 | 0.00 | 0.00 | 55 | 1013.7 |
| 20260505221408 | 42 | 329 | 7.0 | 14.0 | 0.00 | 0.00 | 0.00 | 55 | 1013.5 |
| 20260505220905 | 42 | 326 | 7.0 | 10.0 | 0.00 | 0.00 | 0.00 | 56 | 1013.4 |
| 20260505220402 | 42 | 249 | 4.0 | 7.0 | 0.00 | 0.00 | 0.00 | 55 | 1013.5 |
| 20260505215859 | 42 | 196 | 4.0 | 8.0 | 0.00 | 0.00 | 0.00 | 56 | 1013.5 |
| 20260505215357 | 42 | 301 | 9.0 | 10.0 | 0.00 | 0.00 | 0.00 | 55 | 1013.8 |
| 20260505214855 | 42 | 275 | 7.0 | 8.0 | 0.00 | 0.00 | 0.00 | 57 | 1013.5 |
| 20260505214352 | 43 | 290 | 6.0 | 11.0 | 0.00 | 0.00 | 0.00 | 54 | 1013.5 |
| 20260505213849 | 42 | 258 | 6.0 | 11.0 | 0.00 | 0.00 | 0.00 | 53 | 1013.4 |
| 20260505213347 | 42 | 284 | 5.0 | 8.0 | 0.00 | 0.00 | 0.00 | 54 | 1013.4 |
| 20260505212843 | 42 | 298 | 4.0 | 8.0 | 0.00 | 0.00 | 0.00 | 54 | 1013.6 |
| 20260505212340 | 43 | 213 | 6.0 | 7.0 | 0.00 | 0.00 | 0.00 | 54 | 1013.3 |
| 20260505211836 | 43 | 283 | 4.0 | 6.0 | 0.00 | 0.00 | 0.00 | 51 | 1013.4 |
| 20260505211334 | 43 | 336 | 6.0 | 7.0 | 0.00 | 0.00 | 0.00 | 52 | 1013.6 |
| 20260505210830 | 42 | 265 | 10.0 | 11.0 | 0.00 | 0.00 | 0.00 | 54 | 1013.5 |
| 20260505210327 | 42 | 342 | 5.0 | 8.0 | 0.00 | 0.00 | 0.00 | 52 | 1013.2 |
| 20260505205824 | 42 | 276 | 8.0 | 10.0 | 0.00 | 0.00 | 0.00 | 51 | 1013.4 |
| 20260505205322 | 43 | 297 | 4.0 | 14.0 | 0.00 | 0.00 | 0.00 | 51 | 1013.4 |
| 20260505204819 | 43 | 302 | 4.0 | 9.0 | 0.00 | 0.00 | 0.00 | 51 | 1013.4 |
| 20260505204317 | 43 | 247 | 9.0 | 11.0 | 0.00 | 0.00 | 0.00 | 50 | 1013.3 |
| 20260505203814 | 43 | 315 | 9.0 | 11.0 | 0.00 | 0.00 | 0.00 | 50 | 1013.2 |
| 20260505203310 | 42 | 248 | 4.0 | 6.0 | 0.00 | 0.00 | 0.00 | 52 | 1013.4 |
| 20260505202807 | 42 | 263 | 7.0 | 9.0 | 0.00 | 0.00 | 0.00 | 51 | 1013.2 |
| 20260505202306 | 43 | 4 | 6.0 | 10.0 | 0.00 | 0.00 | 0.00 | 52 | 1013.4 |
| 20260505201800 | 43 | 341 | 2.0 | 10.0 | 0.00 | 0.00 | 0.00 | 54 | 1013.6 |
| 20260505201257 | 43 | 342 | 5.0 | 7.0 | 0.00 | 0.00 | 0.00 | 54 | 1013.5 |
| 20260505200755 | 43 | 315 | 6.0 | 10.0 | 0.00 | 0.00 | 0.00 | 51 | 1013.5 |
| 20260505200252 | 43 | 297 | 10.0 | 11.0 | 0.00 | 0.00 | 0.00 | 52 | 1013.4 |
| 20260505195747 | 43 | 274 | 9.0 | 13.0 | 0.00 | 0.00 | 0.00 | 52 | 1013.3 |
| 20260505195245 | 43 | 286 | 9.0 | 13.0 | 0.00 | 0.00 | 0.00 | 51 | 1013.1 |
| 20260505194742 | 43 | 292 | 8.0 | 10.0 | 0.00 | 0.00 | 0.00 | 52 | 1013.2 |
| 20260505194239 | 43 | 292 | 8.0 | 10.0 | 0.00 | 0.00 | 0.00 | 52 | 1013.3 |
| 20260505193734 | 42 | 309 | 7.0 | 9.0 | 0.00 | 0.00 | 0.00 | 53 | 1013.3 |
| 20260505193232 | 42 | 309 | 7.0 | 9.0 | 0.00 | 0.00 | 0.00 | 53 | 1013.2 |
| 20260505192730 | 42 | 309 | 7.0 | 9.0 | 0.00 | 0.00 | 0.00 | 53 | 1013.3 |
| 20260505192228 | 43 | 301 | 7.0 | 9.0 | 0.00 | 0.00 | 0.00 | 52 | 1013.1 |
| 20260505191726 | 43 | 263 | 3.0 | 8.0 | 0.00 | 0.00 | 0.00 | 53 | 1013.1 |
| 20260505191224 | 43 | 357 | 6.0 | 8.0 | 0.00 | 0.00 | 0.00 | 52 | 1013.2 |
| 20260505190720 | 42 | 312 | 5.0 | 9.0 | 0.00 | 0.00 | 0.00 | 56 | 1013.2 |
| 20260505190220 | 43 | 336 | 9.0 | 11.0 | 0.00 | 0.00 | 0.00 | 53 | 1013.2 |
| 20260505185716 | 43 | 289 | 6.0 | 8.0 | 0.00 | 0.00 | 0.00 | 54 | 1013.2 |
| 20260505185213 | 44 | 319 | 7.0 | 15.0 | 0.00 | 0.00 | 0.00 | 53 | 1012.9 |
| 20260505184709 | 43 | 35 | 2.0 | 11.0 | 0.00 | 0.00 | 0.00 | 54 | 1012.9 |
| 20260505184207 | 43 | 294 | 10.0 | 16.0 | 0.00 | 0.00 | 0.00 | 50 | 1012.9 |
| 20260505183703 | 44 | 300 | 8.0 | 11.0 | 0.00 | 0.00 | 0.00 | 51 | 1012.9 |
| 20260505183201 | 43 | 289 | 6.0 | 7.0 | 0.00 | 0.00 | 0.00 | 53 | 1012.7 |
| 20260505182656 | 44 | 350 | 6.0 | 10.0 | 0.00 | 0.00 | 0.00 | 53 | 1013.0 |
| 20260505182154 | 44 | 289 | 6.0 | 9.0 | 0.00 | 0.00 | 0.00 | 53 | 1012.7 |
| 20260505181650 | 44 | 302 | 6.0 | 9.0 | 0.00 | 0.00 | 0.00 | 52 | 1012.7 |
| 20260505181148 | 43 | 304 | 5.0 | 9.0 | 0.00 | 0.00 | 0.00 | 52 | 1012.7 |
| 20260505180644 | 43 | 298 | 8.0 | 14.0 | 0.00 | 0.00 | 0.00 | 52 | 1012.7 |
| 20260505180141 | 43 | 241 | 7.0 | 10.0 | 0.00 | 0.00 | 0.00 | 50 | 1012.4 |
| 20260505175637 | 43 | 290 | 5.0 | 10.0 | 0.00 | 0.00 | 0.00 | 51 | 1012.2 |
| 20260505175134 | 43 | 260 | 7.0 | 16.0 | 0.00 | 0.00 | 0.00 | 52 | 1012.7 |
| 20260505174631 | 43 | 290 | 11.0 | 16.0 | 0.00 | 0.00 | 0.00 | 49 | 1012.5 |
| 20260505174126 | 43 | 277 | 7.0 | 13.0 | 0.00 | 0.00 | 0.00 | 51 | 1012.2 |
| 20260505173623 | 43 | 278 | 5.0 | 10.0 | 0.00 | 0.00 | 0.00 | 52 | 1012.4 |
| 20260505173114 | 43 | 19 | 5.0 | 11.0 | 0.00 | 0.00 | 0.00 | 52 | 1012.2 |
| 20260505172612 | 43 | 304 | 9.0 | 15.0 | 0.00 | 0.00 | 0.00 | 52 | 1012.5 |
| 20260505172108 | 43 | 357 | 6.0 | 11.0 | 0.00 | 0.00 | 0.00 | 50 | 1012.4 |
| 20260505171603 | 44 | 294 | 4.0 | 11.0 | 0.00 | 0.00 | 0.00 | 49 | 1012.4 |
| 20260505171101 | 44 | 232 | 8.0 | 11.0 | 0.00 | 0.00 | 0.00 | 47 | 1012.1 |
| 20260505170557 | 44 | 329 | 5.0 | 9.0 | 0.00 | 0.00 | 0.00 | 50 | 1012.0 |
| 20260505170054 | 44 | 336 | 9.0 | 14.0 | 0.00 | 0.00 | 0.00 | 50 | 1012.2 |
| 20260505165549 | 45 | 297 | 6.0 | 13.0 | 0.00 | 0.00 | 0.00 | 51 | 1012.4 |
| 20260505165045 | 42 | 307 | 3.0 | 9.0 | 0.00 | 0.00 | 0.00 | 55 | 1012.1 |
| 20260505164541 | 42 | 345 | 7.0 | 10.0 | 0.00 | 0.00 | 0.00 | 52 | 1012.4 |
| 20260505164038 | 42 | 292 | 5.0 | 9.0 | 0.00 | 0.00 | 0.00 | 51 | 1012.2 |
| 20260505163537 | 42 | 326 | 9.0 | 10.0 | 0.00 | 0.00 | 0.00 | 51 | 1012.4 |
| 20260505163033 | 42 | 221 | 5.0 | 9.0 | 0.00 | 0.00 | 0.00 | 53 | 1012.4 |
| 20260505162526 | 42 | 345 | 5.0 | 9.0 | 0.00 | 0.00 | 0.00 | 53 | 1012.1 |
| 20260505162024 | 43 | 335 | 3.0 | 9.0 | 0.00 | 0.00 | 0.00 | 55 | 1012.1 |
| 20260505161520 | 42 | 263 | 5.0 | 14.0 | 0.00 | 0.00 | 0.00 | 51 | 1012.2 |
| 20260505161017 | 43 | 277 | 9.0 | 14.0 | 0.00 | 0.00 | 0.00 | 50 | 1012.0 |
| 20260505160515 | 43 | 284 | 8.0 | 13.0 | 0.00 | 0.00 | 0.00 | 49 | 1012.2 |
| 20260505152951 | 42 | 297 | 5.0 | 9.0 | 0.00 | 0.00 | 0.00 | 55 | 1011.9 |
| 20260505152449 | 43 | 310 | 4.0 | 10.0 | 0.00 | 0.00 | 0.00 | 55 | 1011.7 |
| 20260505151944 | 43 | 305 | 7.0 | 8.0 | 0.00 | 0.00 | 0.00 | 58 | 1012.0 |
| 20260505151440 | 43 | 228 | 6.0 | 13.0 | 0.00 | 0.00 | 0.00 | 57 | 1011.8 |
| 20260505150937 | 43 | 309 | 7.0 | 10.0 | 0.00 | 0.00 | 0.00 | 57 | 1011.9 |
| 20260505150434 | 43 | 256 | 9.0 | 15.0 | 0.00 | 0.00 | 0.00 | 55 | 1011.9 |
| 20260505140404 | 40 | 306 | 3.0 | 6.0 | 0.00 | 0.00 | 0.00 | 60 | 1011.6 |
| 20260505124817 | 36 | 255 | 4.0 | 10.0 | 0.00 | 0.00 | 0.00 | 64 | 1011.1 |
| 20260505124314 | 37 | 239 | 5.0 | 7.0 | 0.00 | 0.00 | 0.00 | 66 | 1011.2 |
| 20260505123810 | 36 | 265 | 4.0 | 6.0 | 0.00 | 0.00 | 0.00 | 66 | 1010.9 |
| 20260505123307 | 36 | 272 | 4.0 | 6.0 | 0.00 | 0.00 | 0.00 | 67 | 1011.0 |
| 20260505122803 | 36 | 293 | 4.0 | 4.0 | 0.00 | 0.00 | 0.00 | 67 | 1010.8 |
| 20260505122301 | 36 | 308 | 3.0 | 6.0 | 0.00 | 0.00 | 0.00 | 67 | 1010.9 |
| 20260505121757 | 35 | 249 | 1.0 | 2.0 | 0.00 | 0.00 | 0.00 | 67 | 1010.9 |
| 20260505121254 | 35 | 261 | 2.0 | 3.0 | 0.00 | 0.00 | 0.00 | 66 | 1010.6 |
| 20260505120750 | 35 | 302 | 4.0 | 6.0 | 0.00 | 0.00 | 0.00 | 67 | 1010.7 |
| 20260505120247 | 35 | 239 | 0.0 | 1.0 | 0.00 | 0.00 | 0.00 | 67 | 1010.6 |
| 20260505115745 | 35 | 314 | 2.0 | 4.0 | 0.00 | 0.00 | 0.00 | 67 | 1010.6 |
| 20260505115243 | 34 | 332 | 2.0 | 3.0 | 0.00 | 0.00 | 0.00 | 68 | 1010.5 |
| 20260505114740 | 34 | 246 | 1.0 | 2.0 | 0.00 | 0.00 | 0.00 | 67 | 1010.2 |
| 20260505114236 | 33 | 246 | 1.0 | 3.0 | 0.00 | 0.00 | 0.00 | 68 | 1010.2 |
| 20260505113733 | 33 | 303 | 2.0 | 3.0 | 0.00 | 0.00 | 0.00 | 70 | 1010.3 |
| 20260505113230 | 32 | 240 | 0.0 | 1.0 | 0.00 | 0.00 | 0.00 | 72 | 1010.1 |
| 20260505112726 | 32 | 282 | 2.0 | 2.0 | 0.00 | 0.00 | 0.00 | 73 | 1010.4 |
| 20260505112224 | 32 | 262 | 1.0 | 3.0 | 0.00 | 0.00 | 0.00 | 74 | 1010.1 |
| 20260505111723 | 32 | 223 | 0.0 | 2.0 | 0.00 | 0.00 | 0.00 | 74 | 1010.3 |
| 20260505111219 | 32 | 247 | 1.0 | 2.0 | 0.00 | 0.00 | 0.00 | 75 | 1010.2 |
| 20260505110715 | 32 | 229 | 1.0 | 3.0 | 0.00 | 0.00 | 0.00 | 75 | 1010.1 |
| 20260505110213 | 32 | 239 | 2.0 | 3.0 | 0.00 | 0.00 | 0.00 | 74 | 1010.2 |
| 20260505102148 | 33 | 275 | 0.0 | 1.0 | 0.00 | 0.00 | 0.00 | 71 | 1010.0 |
| 20260505101647 | 34 | 281 | 1.0 | 4.0 | 0.00 | 0.00 | 0.00 | 71 | 1009.9 |
| 20260505101143 | 33 | 307 | 2.0 | 2.0 | 0.00 | 0.00 | 0.00 | 72 | 1009.7 |
| 20260505100639 | 34 | 272 | 0.0 | 3.0 | 0.00 | 0.00 | 0.00 | 70 | 1010.1 |
| 20260505100136 | 34 | 295 | 1.0 | 1.0 | 0.00 | 0.00 | 0.00 | 71 | 1009.9 |
| 20260505095632 | 34 | 341 | 3.0 | 3.0 | 0.00 | 0.00 | 0.00 | 70 | 1010.1 |
| 20260505095130 | 35 | 266 | 1.0 | 4.0 | 0.00 | 0.00 | 0.00 | 69 | 1010.2 |
| 20260505094626 | 35 | 29 | 1.0 | 3.0 | 0.00 | 0.00 | 0.00 | 69 | 1010.1 |
| 20260505094122 | 35 | 22 | 1.0 | 3.0 | 0.00 | 0.00 | 0.00 | 69 | 1010.1 |
| 20260505093618 | 35 | 285 | 2.0 | 2.0 | 0.00 | 0.00 | 0.00 | 69 | 1010.0 |
| 20260505093116 | 35 | 330 | 2.0 | 6.0 | 0.00 | 0.00 | 0.00 | 69 | 1010.1 |
| 20260505092613 | 35 | 323 | 1.0 | 6.0 | 0.00 | 0.00 | 0.00 | 69 | 1010.0 |
| 20260505092112 | 35 | 326 | 2.0 | 2.0 | 0.00 | 0.00 | 0.00 | 68 | 1009.9 |
| 20260505091608 | 36 | 18 | 3.0 | 6.0 | 0.00 | 0.00 | 0.00 | 67 | 1010.1 |
| 20260505091106 | 36 | 357 | 3.0 | 6.0 | 0.00 | 0.00 | 0.00 | 67 | 1010.0 |
| 20260505090604 | 36 | 348 | 5.0 | 8.0 | 0.00 | 0.00 | 0.00 | 66 | 1010.0 |
| 20260505085559 | 36 | 9 | 3.0 | 7.0 | 0.00 | 0.00 | 0.00 | 70 | 1010.0 |
| 20260505085057 | 36 | 13 | 1.0 | 6.0 | 0.00 | 0.00 | 0.00 | 72 | 1009.7 |
| 20260505084555 | 36 | 30 | 2.0 | 6.0 | 0.00 | 0.00 | 0.00 | 73 | 1009.9 |
| 20260505084053 | 37 | 76 | 2.0 | 7.0 | 0.00 | 0.00 | 0.00 | 73 | 1009.7 |
| 20260505083549 | 37 | 342 | 2.0 | 3.0 | 0.00 | 0.00 | 0.00 | 74 | 1009.7 |
| 20260505083046 | 37 | 29 | 1.0 | 4.0 | 0.00 | 0.00 | 0.00 | 75 | 1009.5 |
| 20260505082542 | 36 | 5 | 4.0 | 6.0 | 0.00 | 0.00 | 0.00 | 76 | 1009.6 |
| 20260505082039 | 36 | 305 | 0.0 | 3.0 | 0.00 | 0.00 | 0.00 | 77 | 1009.6 |
| 20260505081535 | 37 | 313 | 2.0 | 3.0 | 0.00 | 0.00 | 0.00 | 76 | 1009.4 |
| 20260505081032 | 37 | 314 | 5.0 | 7.0 | 0.00 | 0.00 | 0.00 | 75 | 1009.4 |
| 20260505080529 | 37 | 314 | 4.0 | 6.0 | 0.00 | 0.00 | 0.00 | 74 | 1009.5 |
| 20260505080026 | 37 | 324 | 5.0 | 7.0 | 0.00 | 0.00 | 0.00 | 73 | 1009.6 |
| 20260505075521 | 38 | 331 | 3.0 | 8.0 | 0.00 | 0.00 | 0.00 | 73 | 1009.6 |
| 20260505075018 | 38 | 73 | 1.0 | 7.0 | 0.00 | 0.00 | 0.00 | 73 | 1009.5 |
| 20260505074516 | 38 | 359 | 4.0 | 7.0 | 0.00 | 0.00 | 0.00 | 72 | 1009.4 |
| 20260505074013 | 38 | 335 | 2.0 | 2.0 | 0.00 | 0.00 | 0.00 | 72 | 1009.4 |
| 20260505073510 | 39 | 53 | 4.0 | 7.0 | 0.00 | 0.00 | 0.00 | 72 | 1009.4 |
| 20260505073008 | 39 | 343 | 3.0 | 4.0 | 0.00 | 0.00 | 0.00 | 71 | 1009.4 |
| 20260505072504 | 39 | 312 | 5.0 | 7.0 | 0.00 | 0.00 | 0.00 | 71 | 1009.5 |
| 20260505072000 | 39 | 5 | 5.0 | 7.0 | 0.00 | 0.00 | 0.00 | 70 | 1009.4 |
| 20260505071455 | 39 | 359 | 2.0 | 4.0 | 0.00 | 0.00 | 0.00 | 70 | 1009.4 |
| 20260505070954 | 39 | 358 | 1.0 | 2.0 | 0.00 | 0.00 | 0.00 | 68 | 1009.2 |
| 20260505070450 | 39 | 336 | 4.0 | 7.0 | 0.00 | 0.00 | 0.00 | 67 | 1009.4 |